Regional Weather Roundup
Issued by NWS

Current Version | Previous Version | Text Only | Print | Product List | Glossary On
Versions: 1 2 3 4 5 6 7 8 9 10 11 12 13 14 15 16 17 18 19 20 21 22 23 24 25 26 27 28 29 30 31 32 33 34 35 36 37 38 39 40 41 42 43 44 45 46 47 48 49 50
000
ASUS44 KFWD 021615
RWRTX
NORTH TEXAS HOURLY WEATHER ROUNDUP
NATIONAL WEATHER SERVICE FORT WORTH TX
1000 AM CST MON MAR 02 2015

NOTE: "FAIR" INDICATES FEW OR NO CLOUDS BELOW 12,000 FEET WITH NO
SIGNIFICANT WEATHER AND/OR OBSTRUCTIONS TO VISIBILITY.

TXZ118-119-021700-
DALLAS/FORT WORTH METROPLEX

CITY           SKY/WX    TMP DP  RH WIND       PRES   REMARKS
DFW AIRPORT    DRIZZLE   35  33  92 N10       30.39S FOG     WCI  27
DALLAS LOVE    DRIZZLE   36  34  92 N8G18     30.40R FOG     WCI  30
FTW MEACHAM    CLOUDY    36  33  89 N8        30.40S FOG     WCI  30
DAL-EXECUTIVE  FOG       35  34  96 N9        30.37F VSB 3/4 WCI  28
FTW-ALLIANCE   DRIZZLE   34  32  92 N9        30.39F FOG     WCI  27
FTW-SPINKS     CLOUDY    36  34  93 N9        30.41S FOG     WCI  29
ARLINGTON      CLOUDY    36  33  89 N10       30.39S FOG     WCI  28
GRAND PRAIRIE  DRIZZLE   36  36 100 N9        30.41S WCI  29
ADDISON        CLOUDY    36  34  93 N8        30.41R FOG     WCI  29
MESQUITE       CLOUDY    36  36 100 N7        30.39S FOG     WCI  30
LANCASTER      CLOUDY    36  34  93 N8        30.40  FOG     WCI  29
$$

TXZ091>094-102>105-117-120-121-131>134-021700-
NORTH CENTRAL TEXAS

CITY           SKY/WX    TMP DP  RH WIND       PRES   REMARKS
SHRMAN/DENISON CLOUDY    36  36 100 N7        30.41  FOG     WCI  30
GAINESVILLE    CLOUDY    32  32 100 N7        30.42  FOG     WCI  26
BOWIE          CLOUDY    32  30  93 N6        30.39  FOG     WCI  26
BRIDGEPORT     CLOUDY    34  34 100 N6        30.42S FOG     WCI  29
DECATUR        CLOUDY    32  32 100 N5        30.39  FOG     WCI  27
DENTON         CLOUDY    34  32  92 N10       30.40F FOG     WCI  26
MCKINNEY       CLOUDY    36  35  96 N10       30.39S FOG     WCI  28
TERRELL        CLOUDY    39  36  89 N7        30.39R FOG     WCI  34
WAXAHACHIE     CLOUDY    36  36 100 N8        30.39F FOG     WCI  29
$$

TXZ083>090-098>101-113>116-127>130-139>142-154-155-021700-
WESTERN NORTH TEXAS

CITY           SKY/WX    TMP DP  RH WIND       PRES   REMARKS
WICHITA FALLS  CLOUDY    33  27  78 NE8       30.39F WCI  26
VERNON         CLOUDY    33  23  67 N6        30.40F WCI  27
ABILENE        CLOUDY    30  28  92 N7        30.38R FOG     WCI  23
ABILENE-DYESS  FRZ DRZL  30  27  88 N6        30.38R VSB 1   WCI  24
BRECKENRIDGE   CLOUDY    33  32  97 N7        30.38F FOG     WCI  27
GRAHAM         CLOUDY    32  32  99 N5        30.39R FOG     WCI  27
MINERAL WELLS  CLOUDY    34  32  92 N6        30.37F FOG     WCI  29
STEPHENVILLE   CLOUDY    33  32  95 N8        30.39S VSB 1   WCI  26
COMANCHE       CLOUDY    33  33 100 N8        30.37S FOG     WCI  26
BROWNWOOD      PTSUNNY   34  32  93 N7        30.37R FOG     WCI  28
COLEMAN        CLOUDY    33  33 100 N8        30.37R FOG     WCI  26
$$

TXZ143>147-156>162-174-175-021700-
CENTRAL TEXAS

CITY           SKY/WX    TMP DP  RH WIND       PRES   REMARKS
WACO           CLOUDY    38  36  92 N12       30.38F FOG     WCI  30
WACO-MCGREGOR    N/A     37  32  81 N13       30.38F WCI  29
CORSICANA      CLOUDY    39  36  89 N9        30.39R FOG     WCI  33
MEXIA          CLOUDY    38  37  97 MISG      30.35S
TEMPLE         CLOUDY    37  34  87 N10       30.36S WCI  30
KILLEEN        CLOUDY    36  36 100 N10       30.35S FOG     WCI  28
KILLEEN-SKYLRK CLOUDY    37  32  81 N8        30.34S WCI  31
FORT HOOD      CLOUDY    37  36  99 N10       30.36R FOG     WCI  29
HAMILTON       FOG       35  35 100 N10       30.36F VSB 3/4 WCI  27
$$

TXZ095>097-106>112-122>126-135>138-148>153-164>167-021700-
EAST TEXAS

CITY           SKY/WX    TMP DP  RH WIND       PRES   REMARKS
PARIS          CLOUDY    39  37  93 E8        30.40S WCI  34
SULPHUR SPRNGS CLOUDY    39  39 100 NE7       30.40  FOG     WCI  34
TYLER          CLOUDY    42  40  92 NE9       30.36R WCI  37
LONGVIEW       CLOUDY    42  40  92 NE9       30.36R FOG     WCI  37
ATHENS         CLOUDY    37  37 100 N7        30.36R FOG     WCI  32
PALESTINE      FOG       43  43 100 N5        30.36S VSB 1
JACKSONVILLE   FOG       43  43 100 NE7       30.36R VSB 1/2 WCI  39
HENDERSON      CLOUDY    43  43 100 E7        30.36  WCI  39
NACOGDOCHES    CLOUDY    45  43  93 E6        30.34F
LUFKIN         CLOUDY    48  44  86 NE8       30.33R FOG
$$

SUPPLEMENTAL OBSERVATIONS (CENTRAL)

CITY           SKY/WX    TMP DP  RH WIND       PRES   REMARKS
$$

SUPPLEMENTAL OBSERVATIONS (WEST)

CITY           SKY/WX    TMP DP  RH WIND       PRES   REMARKS
$$

SUPPLEMENTAL OBSERVATIONS (EAST)

CITY           SKY/WX    TMP DP  RH WIND       PRES   REMARKS
$$

SUPPLEMENTAL OBSERVATIONS ARE A COLLECTION OF AUTOMATED INSTRUMENTS
THAT ARE MAINTAINED BY A VARIETY OF FEDERAL AND STATE AGENCIES.
CERTAIN ELEMENTS...SUCH AS HUMIDITY VALUES AND SUSTAINED WIND
SPEEDS...MAY BE APPROXIMATED.




USA.gov is the U.S. government's official web portal to all federal, state and local government web resources and services.